Location: Kawakawa
(35.3830°S, 174.0670°E)
Time: 18:39:14
(UTC+12:00)

Lacrosse 4 Rocket - Pass Details

Date: 15 August 2020
Orbit: 544 x 615 km, 68.0° (Epoch: 25 September)

Event Time Altitude Azimuth Distance (km) Brightness Sun altitude
Rises 18:38:03 0° 189° (S) 2,913 5.0 -10.0°
Reaches altitude 10° 18:41:01 10° 169° (SSE) 2,004 4.0 -10.6°
Maximum altitude 18:44:03 18° 126° (SE) 1,562 3.1 -11.2°
Enters shadow 18:45:17 16° 106° (ESE) 1,640 3.1 -11.4°
